Starlink 32379

operational
NORAD ID: 61851 Int'l Des: 2024-202 Owner: SPXS Country: US Constellation: starlink
LEOCIRCULAR

Starlink 32379について

説明を読み込み中...

リアルタイム位置

3D地球を読み込み中...

次回通過

高度履歴

Altitude vs Time

uPlot chart will show altitude changes over time

軌道要素

1 61851U 24202G 25305.49816244 -.00000316 00000-0 -19764-5 0 9998
2 61851 43.0012 230.5947 0000855 246.9793 113.0969 15.27568036 55856
Epoch: Nov 1, 2025 • Age: 26 hours

現在のステータス

高度 490.2 km
速度 7.62 km/s
衛星直下点 -28.94°S, 172.17°W
打ち上げ日 Nov 7, 2024
運用期間 0.9 years
タイプ internet

技術仕様

分類 Payload
質量 730.00 kg
乾燥質量 700.00 kg
総質量 730.00 kg
長さ 0.30 m
直径 4.10 m
スパン 29.00 m
形状 Box + pan
製造者 SPXS
バスタイプ Starlink V2M
フェーズステータス In Orbit
所有者/国 SPXS/US

大規模コンステレーション

Loading constellations...